Location: *
(45.4590°N, 16.3650°E)
Time: 13:03:21
(UTC+00:00)

STARLINK-1093 - Pass Details

Date: 17 January 2020
Orbit: 349 x 351 km, 53.0° (Epoch: 21 February)

Event Time Altitude Azimuth Distance (km) Brightness Sun altitude
Rises 17:23:58 0° 240° (WSW) 2,149 8.0 -17.9°
Reaches altitude 10° 17:25:58 10° 241° (WSW) 1,310 6.7 -18.3°
Enters shadow 17:28:51 79° 316° (NW) 361 2.7 -18.8°
